Time,TemperatureF,DewpointF,PressureIn,WindDirection,WindDirectionDegrees,WindSpeedMPH,WindSpeedGustMPH,Humidity,HourlyPrecipIn,Conditions,Clouds,dailyrainin,SoftwareType,DateUTC
2013-03-10 00:00:00,33.0,-99.9,30.34,NE,54,13.0,15.0,-999,-99.99,,,-99.99,,2013-03-10 05:00:00,
2013-03-10 00:42:00,33.0,-99.9,30.34,NE,54,13.0,15.0,-999,-99.99,,,-99.99,,2013-03-10 05:42:00,
2013-03-10 00:52:00,33.0,-99.9,30.34,NE,54,13.0,15.0,-999,-99.99,,,-99.99,,2013-03-10 05:52:00,
2013-03-10 01:10:00,32.0,-99.9,30.35,NE,49,12.0,15.0,-999,-99.99,,,-99.99,,2013-03-10 06:10:00,
2013-03-10 01:42:00,32.0,-99.9,30.35,NE,49,12.0,15.0,-999,-99.99,,,-99.99,,2013-03-10 06:42:00,
2013-03-10 01:52:00,32.0,-99.9,30.35,NE,49,12.0,15.0,-999,-99.99,,,-99.99,,2013-03-10 06:52:00,
2013-03-10 03:02:00,32.0,-99.9,30.35,NE,49,12.0,15.0,-999,-99.99,,,-99.99,,2013-03-10 07:02:00,
2013-03-10 07:00:00,31.0,-99.9,30.37,ENE,58,12.0,14.0,-999,-99.99,,,-99.99,,2013-03-10 11:00:00,
2013-03-10 07:42:00,31.0,-99.9,30.37,ENE,58,12.0,14.0,-999,-99.99,,,-99.99,,2013-03-10 11:42:00,
2013-03-10 07:52:00,31.0,-99.9,30.37,ENE,58,12.0,14.0,-999,-99.99,,,-99.99,,2013-03-10 11:52:00,
2013-03-10 08:00:00,30.0,-99.9,30.39,NE,46,5.0,9.0,-999,-99.99,,,-99.99,,2013-03-10 12:00:00,
2013-03-10 08:42:00,30.0,-99.9,30.39,NE,46,5.0,9.0,-999,-99.99,,,-99.99,,2013-03-10 12:42:00,
2013-03-10 08:52:00,30.0,-99.9,30.39,NE,46,5.0,9.0,-999,-99.99,,,-99.99,,2013-03-10 12:52:00,
2013-03-10 09:00:00,30.0,-99.9,30.39,NNE,25,5.0,8.0,-999,-99.99,,,-99.99,,2013-03-10 13:00:00,
2013-03-10 09:42:00,30.0,-99.9,30.39,NNE,25,5.0,8.0,-999,-99.99,,,-99.99,,2013-03-10 13:42:00,
2013-03-10 09:52:00,30.0,-99.9,30.39,NNE,25,5.0,8.0,-999,-99.99,,,-99.99,,2013-03-10 13:52:00,
2013-03-10 10:00:00,30.0,-99.9,30.39,NNE,33,4.0,7.0,-999,-99.99,,,-99.99,,2013-03-10 14:00:00,
2013-03-10 10:42:00,30.0,-99.9,30.39,NNE,33,4.0,7.0,-999,-99.99,,,-99.99,,2013-03-10 14:42:00,
2013-03-10 10:52:00,30.0,-99.9,30.39,NNE,33,4.0,7.0,-999,-99.99,,,-99.99,,2013-03-10 14:52:00,
2013-03-10 11:00:00,30.0,-99.9,30.40,NNW,334,4.0,6.0,-999,-99.99,,,-99.99,,2013-03-10 15:00:00,
2013-03-10 11:42:00,30.0,-99.9,30.40,NNW,334,4.0,6.0,-999,-99.99,,,-99.99,,2013-03-10 15:42:00,
2013-03-10 11:52:00,30.0,-99.9,30.40,NNW,334,4.0,6.0,-999,-99.99,,,-99.99,,2013-03-10 15:52:00,
2013-03-10 12:00:00,31.0,-99.9,30.40,NNW,336,4.0,6.0,-999,-99.99,,,-99.99,,2013-03-10 16:00:00,
2013-03-10 12:42:00,31.0,-99.9,30.40,NNW,336,4.0,6.0,-999,-99.99,,,-99.99,,2013-03-10 16:42:00,
2013-03-10 12:52:00,31.0,-99.9,30.40,NNW,336,4.0,6.0,-999,-99.99,,,-99.99,,2013-03-10 16:52:00,
2013-03-10 13:00:00,32.0,-99.9,30.39,NW,318,2.0,4.0,-999,-99.99,,,-99.99,,2013-03-10 17:00:00,
2013-03-10 13:41:00,32.0,-99.9,30.39,NW,318,2.0,4.0,-999,-99.99,,,-99.99,,2013-03-10 17:41:00,
2013-03-10 13:52:00,32.0,-99.9,30.39,NW,318,2.0,4.0,-999,-99.99,,,-99.99,,2013-03-10 17:52:00,
2013-03-10 14:00:00,31.0,-99.9,30.36,ESE,116,4.0,6.0,-999,-99.99,,,-99.99,,2013-03-10 18:00:00,
2013-03-10 14:42:00,31.0,-99.9,30.36,ESE,116,4.0,6.0,-999,-99.99,,,-99.99,,2013-03-10 18:42:00,
2013-03-10 14:53:00,31.0,-99.9,30.36,ESE,116,4.0,6.0,-999,-99.99,,,-99.99,,2013-03-10 18:53:00,
2013-03-10 15:00:00,32.0,-99.9,30.35,South,177,5.0,7.0,-999,-99.99,,,-99.99,,2013-03-10 19:00:00,
2013-03-10 15:42:00,32.0,-99.9,30.35,South,177,5.0,7.0,-999,-99.99,,,-99.99,,2013-03-10 19:42:00,
2013-03-10 15:53:00,32.0,-99.9,30.35,South,177,5.0,7.0,-999,-99.99,,,-99.99,,2013-03-10 19:53:00,
2013-03-10 16:00:00,33.0,-99.9,30.34,SSE,150,8.0,10.0,-999,-99.99,,,-99.99,,2013-03-10 20:00:00,
2013-03-10 16:43:00,33.0,-99.9,30.34,SSE,150,8.0,10.0,-999,-99.99,,,-99.99,,2013-03-10 20:43:00,
2013-03-10 16:53:00,33.0,-99.9,30.34,SSE,150,8.0,10.0,-999,-99.99,,,-99.99,,2013-03-10 20:53:00,
2013-03-10 17:00:00,33.0,-99.9,30.34,SSE,152,9.0,11.0,-999,-99.99,,,-99.99,,2013-03-10 21:00:00,
2013-03-10 17:43:00,33.0,-99.9,30.34,SSE,152,9.0,11.0,-999,-99.99,,,-99.99,,2013-03-10 21:43:00,
2013-03-10 17:53:00,33.0,-99.9,30.34,SSE,152,9.0,11.0,-999,-99.99,,,-99.99,,2013-03-10 21:53:00,
2013-03-10 18:00:00,33.0,-99.9,30.34,SSE,168,7.0,9.0,-999,-99.99,,,-99.99,,2013-03-10 22:00:00,
2013-03-10 18:43:00,33.0,-99.9,30.34,SSE,168,7.0,9.0,-999,-99.99,,,-99.99,,2013-03-10 22:43:00,
2013-03-10 18:53:00,33.0,-99.9,30.34,SSE,168,7.0,9.0,-999,-99.99,,,-99.99,,2013-03-10 22:53:00,
2013-03-10 19:00:00,33.0,-99.9,30.34,South,185,7.0,9.0,-999,-99.99,,,-99.99,,2013-03-10 23:00:00,
2013-03-10 19:43:00,33.0,-99.9,30.34,South,185,7.0,9.0,-999,-99.99,,,-99.99,,2013-03-10 23:43:00,
2013-03-10 19:53:00,33.0,-99.9,30.34,South,185,7.0,9.0,-999,-99.99,,,-99.99,,2013-03-10 23:53:00,
2013-03-10 20:00:00,34.0,-99.9,30.32,SSW,206,9.0,10.0,-999,-99.99,,,-99.99,,2013-03-11 00:00:00,
2013-03-10 20:43:00,34.0,-99.9,30.32,SSW,206,9.0,10.0,-999,-99.99,,,-99.99,,2013-03-11 00:43:00,
2013-03-10 20:53:00,34.0,-99.9,30.32,SSW,206,9.0,10.0,-999,-99.99,,,-99.99,,2013-03-11 00:53:00,
2013-03-10 21:00:00,35.0,-99.9,30.32,SW,214,11.0,15.0,-999,-99.99,,,-99.99,,2013-03-11 01:00:00,
2013-03-10 21:43:00,35.0,-99.9,30.32,SW,214,11.0,15.0,-999,-99.99,,,-99.99,,2013-03-11 01:43:00,
2013-03-10 21:54:00,35.0,-99.9,30.32,SW,214,11.0,15.0,-999,-99.99,,,-99.99,,2013-03-11 01:54:00,
2013-03-10 22:00:00,35.0,-99.9,30.31,SW,218,11.0,14.0,-999,-99.99,,,-99.99,,2013-03-11 02:00:00,
2013-03-10 22:42:00,35.0,-99.9,30.31,SW,218,11.0,14.0,-999,-99.99,,,-99.99,,2013-03-11 02:42:00,
2013-03-10 22:53:00,35.0,-99.9,30.31,SW,218,11.0,14.0,-999,-99.99,,,-99.99,,2013-03-11 02:53:00,
2013-03-10 23:00:00,36.0,-99.9,30.28,South,188,13.0,16.0,-999,-99.99,,,-99.99,,2013-03-11 03:00:00,
2013-03-10 23:43:00,36.0,-99.9,30.28,South,188,13.0,16.0,-999,-99.99,,,-99.99,,2013-03-11 03:43:00,
2013-03-10 23:53:00,36.0,-99.9,30.28,South,188,13.0,16.0,-999,-99.99,,,-99.99,,2013-03-11 03:53:00,